小惑星A/2019 G4

A/2019 G4

English version
Home page
Updated on July 8, 2020

---------------------------------------------------------------------

・ プロフィール

発見日 2019年4月9日
発見光度 21.4等
発見者 Pan-STARRS 1 telescope (Haleakala)

・ 軌道要素

Epoch 2018 Aug. 30.0 TT = JDT 2458360.5
T 2018 Sept. 15.16957 TT                                Rudenko
q   5.8580509            (2000.0)            P               Q
z  +0.0000607      Peri.  287.83532     -0.74010889     -0.44377083
 +/-0.0000027      Node   130.47572     +0.04148540     +0.71979801
e   0.9996443      Incl.  138.37559     -0.67120623     +0.53381483
H   13.0
From 27 observations 2019 Apr. 9-2020 May 21, mean residual 0".3.

・ 光度変化

        H = 13.0  G = 0.15

---------------------------------------------------------------------

軌道要素はM.P.E.C. 2020-L06に掲載されたものです。
光度グラフはComet for Windowsで作成したものです。

---------------------------------------------------------------------

Copyright(C) Seiichi Yoshida (comet@aerith.net). All rights reserved.